Regional Weather Roundup
Issued by NWS

Home | Current Version | Previous Version | Graphics & Text | Print | Product List | Glossary On
Versions: 1 2 3 4 5 6 7 8 9 10 11 12 13 14 15 16 17 18 19 20 21 22 23 24 25 26 27
000
ASUS45 KSLC 260110
RWRUT

UTAH REGIONAL WEATHER ROUNDUP
NATIONAL WEATHER SERVICE SALT LAKE CITY UT
700 PM MDT MON JUL 25 2016

UTZ001>011-023>025-260200-

NORTHERN UTAH

CITY           SKY/WX    TMP DP  RH WIND       PRES   REMARKS
BRIGHAM CITY     N/A     95  24   7 SE5       29.99F
HILL AFB         N/A     94  26   9 W5        30.04F
LOGAN          SUNNY     95  34  11 S7        30.00F HX  90
OGDEN          SUNNY     94  25   8 SW7       30.00F
PROVO AIRPORT  MOSUNNY   95  50  21 NW6       30.00S HX  92
SALT LAKE CITY MOSUNNY   99  32   9 N12       29.98F HX  93
VERNAL         MOSUNNY   89  34  14 NW12      30.12F
WENDOVER       MOSUNNY   91  30  11 SE3       29.99S
HEBER CITY     MOSUNNY   88  36  15 E17G28    30.10R

$$

UTZ012>022-026-027-260200-

SOUTHERN/CENTRAL UTAH

CITY           SKY/WX    TMP DP  RH WIND       PRES   REMARKS
BLANDING       PTSUNNY   89  36  15 NW16      30.22R
BRYCE CANYON   CLOUDY    75  39  27 CALM      30.38R
CEDAR CITY     MOSUNNY   93  35  13 S8        30.11S
DELTA          MOSUNNY   95  32  11 S20G26    30.00F HX  90
MILFORD        NOT AVBL
MOAB/CYNLANDS  CLOUDY    92  41  17 S20G29    30.02R
PRICE          PTSUNNY   87  34  15 NE14      30.18F
ST GEORGE      PTCLDY   104  46  14 W10G16    29.89S HX 100

$$

REGIONAL REPORTS     COLORADO/ARIZONA

CITY           SKY/WX    TMP DP  RH WIND       PRES   REMARKS
CRAIG, CO      CLOUDY    85  33  15 W9        30.20R
GRAND JUNCTION MOSUNNY   94  29  10 S6        30.05F
RIFLE          SUNNY     92  29  10 CALM      30.11F
MONTROSE       CLOUDY    84  39  20 S12       30.19F
CORTEZ         MOSUNNY   89  44  20 E10       30.15S
PAGE, AZ       MOSUNNY   98  42  14 N9        30.00F HX  94
GRAND CANYON   CLOUDY    79  44  28 S8        30.27F
KINGMAN        SUNNY    100  45  15 MISG      29.97F HX  96
FLAGSTAFF      LGT RAIN  58  55  90 SW6       30.37F

$$

REGIONAL REPORTS    NEVADA/IDAHO/WYOMING

CITY           SKY/WX    TMP DP  RH WIND       PRES   REMARKS
LAS VEGAS, NV  MOSUNNY  109  33   7 S12       29.76F HX 102
ELY            SUNNY     92  17   6 SW14      30.13S
ELKO           PTSUNNY   97   8   4 NW8G17    30.05F HX  90
POCATELLO, ID  SUNNY     94  29  10 W12       30.03F
BURLEY         SUNNY     86  48  26 SW6       30.00F
EVANSTON, WY   CLOUDY    85  22  10 W16G23    30.26S
ROCK SPRINGS   CLOUDY    83  28  13 W17G25    30.24R
KEMMERER         N/A    N/A N/A N/A W12G17    30.26S

$$




USA.gov is the U.S. government's official web portal to all federal, state and local government web resources and services.